Location: Unspecified
(47.8989°N, 0.0000°E)
Time: 22:35:43
(UTC+00:00)

UNISAT 6 - Visible Passes

Search period start: 04 April 2026 00:00
Search period end: 14 April 2026 00:00
Orbit: 574 x 636 km, 97.8° (Epoch: 28 March)

Date Brightness Start Highest point End Pass type
(mag) Time Alt. Az. Time Alt. Az. Time Alt. Az.
4 Apr ? 02:31:51 33° ESE 02:32:58 40° ENE 02:37:00 10° N visible
4 Apr ? 04:08:40 22° W 04:08:56 22° W 04:12:21 10° NW visible
5 Apr ? 02:44:18 40° ESE 02:45:27 53° ENE 02:49:41 10° N visible
5 Apr ? 04:21:08 17° W 04:21:38 17° W 04:24:29 10° NW visible
6 Apr ? 02:56:45 44° SE 02:57:58 71° ENE 03:02:19 10° N visible
6 Apr ? 04:33:35 13° W 04:34:20 13° W 04:36:20 10° WNW visible
7 Apr ? 01:33:29 10° E 01:35:22 13° ENE 01:37:17 10° NNE visible
7 Apr ? 03:09:12 44° S 03:10:30 86° WSW 03:14:53 10° NNW visible
8 Apr ? 01:45:04 10° E 01:47:44 16° ENE 01:50:26 10° NNE visible
8 Apr ? 03:21:38 39° SSW 03:23:03 64° W 03:27:24 10° NNW visible
9 Apr ? 01:57:14 11° ESE 02:00:08 21° ENE 02:03:22 10° NNE visible
9 Apr ? 03:34:04 32° SSW 03:35:37 47° W 03:39:51 10° NNW visible
10 Apr ? 02:09:40 14° ESE 02:12:31 26° ENE 02:16:10 10° N visible
10 Apr ? 03:46:30 26° SW 03:48:11 35° W 03:52:14 10° NNW visible
11 Apr ? 02:22:06 16° SE 02:24:57 34° ENE 02:28:54 10° N visible
11 Apr ? 03:58:55 20° SW 04:00:48 27° W 04:04:32 10° NW visible
12 Apr ? 02:34:31 18° SE 02:37:23 44° ENE 02:41:34 10° N visible
12 Apr ? 04:11:21 15° SW 04:13:25 21° W 04:16:44 10° NW visible
13 Apr ? 02:46:56 20° SSE 02:49:50 59° ENE 02:54:10 10° N visible
13 Apr ? 04:23:45 11° WSW 04:26:03 16° W 04:28:44 10° NW visible
